Meteo Giornale » Osservazioni meteo Canada » St John's Nfld
ore: 15:30 - Osservazioni Meteo St John's Nfld
Lat. 47° 37' N Lon. 52° 44' W Alt. 134 metri s.l.m.
21 °C
Molto Nuvoloso
Temp. 24 Ore
16 °C
21 °C
Ovest
20.3 Km/h
Dew point 12 °C
Umidità 56 %
Visibilità 24 Km
Il sole sorge alle ore 06:18
Il sole tramonta alle ore 19:43
| Data e Ora | Cielo e Fenomeni | T °C | DP °C | Um. % | Pres. hPa | Vis. km | Vento km/h | |
|---|---|---|---|---|---|---|---|---|
| Oggi h: 15:30 | Molto Nuvoloso | 21 | 12 | 56 | 1004 | 24 | O 20.3 | |
| Oggi h: 14:30 | Molto Nuvoloso | 20 | 11 | 56 | 1004 | 24 | O/SO 27.8 | |
| Oggi h: 13:30 | Molto Nuvoloso | 20 | 13 | 64 | 1005 | 24 | O/SO 27.8 | |
| Oggi h: 12:30 | Molto Nuvoloso | 20 | 13 | 64 | 1005 | 24 | O 25.9 | |
| Oggi h: 11:30 | Nuvoloso | 19 | 14 | 72 | 1006 | 24 | O/SO 25.9 | |
| Oggi h: 10:30 | Molto Nuvoloso | 17 | 14 | 82 | 1006 | 24 | O/SO 22.2 | |
| Oggi h: 09:30 | Nuvoloso | 16 | 15 | 93 | 1006 | 24 | SO 18.5 | |
| Oggi h: 09:24 | Molto Nuvoloso | 16 | 15 | 93 | 1006 | 24 | SO 18.5 | |
| Oggi h: 08:30 | Pioggia | 17 | 15 | 88 | 1007 | 24 | O/SO 24 | |
| Oggi h: 08:12 | Pioggia | 17 | 15 | 88 | 1007 | 24 | O/SO 20.3 | |
| Oggi h: 07:30 | Pioggia nelle vicinanze | 17 | 15 | 88 | 1007 | 24 | O 20.3 | |
| Oggi h: 06:30 | Coperto | 16 | 14 | 87 | 1007 | 24 | O 25.9 | |
| Oggi h: 05:30 | Molto Nuvoloso | 16 | 14 | 87 | 1007 | 24 | O/SO 25.9 | |
| Oggi h: 04:30 | Molto Nuvoloso | 16 | 13 | 82 | 1008 | 24 | O 24 | |
| Oggi h: 03:30 | Molto Nuvoloso | 16 | 13 | 82 | 1008 | 24 | O/SO 33.3 | |
| Oggi h: 02:30 | Molto Nuvoloso | 16 | 12 | 77 | 1008 | 24 | O 29.6 | |
| Oggi h: 01:30 | Molto Nuvoloso | 16 | 13 | 82 | 1009 | 24 | O/SO 27.8 | |
| Oggi h: 00:30 | Molto Nuvoloso | 16 | 13 | 82 | 1010 | 24 | O 24 | |
| Ieri h: 23:30 | Molto Nuvoloso | 16 | 13 | 82 | 1010 | 24 | O 24 | |
| Ieri h: 22:30 | Molto Nuvoloso | 16 | 13 | 82 | 1011 | 24 | O/SO 31.5 | |
| Ieri h: 21:30 | Molto Nuvoloso | 16 | 11 | 72 | 1011 | 24 | O 25.9 | |
| Ieri h: 20:30 | Molto Nuvoloso | 17 | 10 | 63 | 1011 | 24 | O 29.6 | |
| Ieri h: 19:30 | Poco Nuvoloso | 18 | 11 | 63 | 1011 | 24 | O 27.8 | |
| Ieri h: 18:30 | Nuvoloso | 19 | 11 | 59 | 1011 | 24 | O 33.3 | |
| Ieri h: 18:02 | Nuvoloso | 20 | 11 | 56 | 1011 | 24 | O 25.9 | |
| Ieri h: 17:30 | Molto Nuvoloso | 21 | 11 | 52 | 1011 | 24 | O 31.5 | |
| Ieri h: 16:30 | Molto Nuvoloso | 21 | 10 | 49 | 1011 | 24 | O 35.2 | |



